Location: ?????
(44.4284°N, 135.2222°E)
Time: 14:32:04
(UTC+00:00)

NOAA 11 - Pass Details

Date: 19 May 2025
Orbit: 832 x 847 km, 98.6° (Epoch: 19 June)

Event Time Altitude Azimuth Distance (km) Brightness Sun altitude
Rises 17:45:40 0° 14° (NNE) 3,413 8.5 -14.8°
Reaches altitude 10° 17:48:02 10° 16° (NNE) 2,475 7.7 -14.6°
Maximum altitude 17:53:33 80° 103° (ESE) 863 4.3 -13.9°
Enters shadow 17:58:29 13° 191° (S) 2,252 5.9 -13.3°
